Weather in Krasnousolsky

Russia / Republic of Bashkortostan     53°53′36″N   56°28′07″E
temp.,
°C
wind,
m/s
gust,
m/s
humid.,
%
clouds,
%
prec.,
mm/h
press.,
hPa
HPBL,
m
27 february, sat
sat2723:00−19sse229051 0.0 102121
02:00−20se238752 0.0 101844
05:00−16se4138375 0.0 1015501
08:00−14sse61593100 0.6 1011694
11:00−12sse61390100 1.9 1008710
14:00−10sse61190100 0.4 1005686
17:00−7se61189100 0.7 1004663
20:00−8se498998 0.3 1002270
28 february, sun
sun2823:00−8ese359596 0.6 1002138
02:00−8ese2396100 0.8 100092
05:00−7ese2296100 1.6 100090
08:00−6ese2296100 0.7 99966
11:00−3ese2295100 1.2 999193
14:00−1nne11100100 0.7 1000152
17:00−3nnw5796100 1.6 1002364
20:00−9wnw1297100 0.4 100537
1 march, mon
mon123:00−11sw1297100 0.8 100824
02:00−12sw2296100 0.2 101054
05:00−14sw1297100 0.6 101232
08:00−15sw129797 0.3 101428
11:00−13w119196 0.4 1015280
14:00−11wnw2290100 0.3 1016397
17:00−13nw3393100 0.4 1017333
20:00−17nw1298100 0.1 101920
2 march, tue
tue223:00−19wsw0199100 0.2 102020
02:00−21sw1110099 0.1 102020
05:00−22ssw2299100 0.1 102028
08:00−23s339998 0.0 101950
11:00−18ssw469481 0.1 1018293
14:00−14ssw589178 0.0 1016416
17:00−14ssw6118982 0.0 1014483
20:00−15s61487100 0.0 1013458
3 march, wed
wed323:00−15ssw61393100 0.2 1012497
02:00−14s51394100 0.3 1010472
05:00−12s51294100 1.2 1008513
08:00−9s51394100 1.3 1005557
11:00−5s61294100 2.8 1003662
14:00−2s61194100 0.9 1001859
17:00−1ssw5995100 1.6 1000777
20:00−2ssw3898100 1.1 1000419